Location: Cruquius
(52.3348°N, 4.6319°E)
Time: 13:57:24
(UTC+00:00)

SJ 16-02 - Pass Details

Date: 12 May 2021
Orbit: 606 x 616 km, 75.0° (Epoch: 18 June)

Event Time Altitude Azimuth Distance (km) Brightness Sun altitude
Rises 23:12:30 0° 259° (W) 2,887 4.8 -19.1°
Reaches altitude 10° 23:15:45 10° 285° (WNW) 1,986 4.2 -19.1°
Maximum altitude 23:18:08 14° 317° (NW) 1,730 4.3 -19.2°
Drops below altitude 10° 23:20:31 10° 350° (N) 1,992 5.2 -19.2°
Sets 23:23:48 0° 16° (NNE) 2,901 6.1 -19.2°
